GW3037 Weather Reports


time (UTC)temp
F
wind
direction
speed
knots
gust
knots
rain 1hr
in
rain 24hr
in
rain mn
in
humidity
%
barometer
mb
20260507110008 72 5 7.8 13.9 0.00 0.00 0.00 83 1012.4
20260507104512 72 5 6.1 13.0 0.00 0.00 0.00 83 1012.7
20260507103014 73 355 5.2 9.6 0.00 0.00 0.00 83 1013.3
20260507101518 73 11 5.2 10.4 0.00 0.00 0.00 83 1013.5
20260507100017 73 355 6.1 9.6 0.00 0.00 0.00 83 1013.2
20260507094525 73 11 5.2 10.4 0.00 0.00 0.00 83 1013.0
20260507093102 73 355 5.2 11.3 0.00 0.00 0.00 83 1012.8
20260507093002 73 360 6.1 11.3 0.00 0.00 0.00 83 1012.8
20260507091506 73 13 5.2 11.3 0.00 0.00 0.00 84 1012.6
20260507090006 73 19 4.3 10.4 0.00 0.00 0.00 84 1012.7
20260507084512 73 346 5.2 11.3 0.00 0.00 0.00 85 1012.8
20260507083010 73 5 5.2 11.3 0.00 0.00 0.00 85 1012.7
20260507081513 74 5 6.1 11.3 0.00 0.00 0.00 85 1012.6
20260507080019 74 11 6.1 12.2 0.00 0.00 0.00 85 1012.5
20260507074521 75 5 5.2 12.2 0.00 0.00 0.00 85 1012.4
20260507073023 76 351 7.0 14.8 0.00 0.00 0.00 86 1012.5
20260507071527 79 98 1.7 5.2 0.00 0.00 0.00 89 1012.3
20260507070029 79 98 1.7 5.2 0.00 0.00 0.00 89 1012.3
20260507064528 79 98 1.7 3.5 0.00 0.00 0.00 89 1012.3
20260507063033 79 98 1.7 3.5 0.00 0.00 0.00 89 1012.3
20260507061541 79 98 0.9 3.5 0.00 0.00 0.00 89 1012.3
20260507060041 79 98 1.7 3.5 0.00 0.00 0.00 89 1012.4
20260507054542 79 98 0.9 2.6 0.00 0.00 0.00 89 1012.5
20260507053045 79 98 0.9 5.2 0.00 0.00 0.00 89 1012.5
20260507051547 79 98 0.9 3.5 0.00 0.00 0.00 89 1012.4
20260507050053 79 98 1.7 5.2 0.00 0.00 0.00 89 1012.2
20260507044556 79 98 1.7 5.2 0.00 0.00 0.00 89 1012.3
20260507043103 78 99 1.7 3.5 0.00 0.00 0.00 88 1012.1
20260507043002 78 98 0.9 2.6 0.00 0.00 0.00 88 1012.2
20260507041516 78 99 0.9 2.6 0.00 0.00 0.00 88 1012.0
20260507040008 79 99 1.7 5.2 0.00 0.00 0.00 88 1011.8
20260507034513 79 99 2.6 5.2 0.00 0.00 0.00 88 1011.7
20260507033014 79 99 1.7 6.1 0.00 0.00 0.00 88 1011.5
20260507031514 79 99 2.6 6.1 0.00 0.00 0.00 88 1011.4
20260507030016 79 100 2.6 7.8 0.00 0.00 0.00 88 1011.2
20260507024522 79 100 2.6 7.0 0.00 0.00 0.00 88 1010.9
20260507023021 79 101 3.5 7.8 0.00 0.00 0.00 88 1010.7
20260507021525 79 95 3.5 7.0 0.00 0.00 0.00 87 1010.5
20260507020034 79 94 1.7 7.0 0.00 0.00 0.00 87 1010.5
20260507014556 79 93 1.7 6.1 0.00 0.00 0.00 87 1010.3
20260507013108 79 96 1.7 5.2 0.00 0.00 0.00 87 1010.1
20260507011556 79 96 3.5 7.0 0.00 0.00 0.00 86 1009.8
20260507010054 79 95 3.5 6.1 0.00 0.00 0.00 86 1009.4
20260507010003 79 95 3.5 6.1 0.00 0.00 0.00 86 1009.4
20260507004550 80 94 2.6 7.0 0.00 0.00 0.00 86 1009.3
20260507003056 80 94 5.2 7.8 0.00 0.00 0.00 85 1009.2
20260507001620 80 93 3.5 7.0 0.00 0.00 0.00 84 1009.0
20260507001502 80 93 2.6 6.1 0.00 0.00 0.00 85 1009.0
20260507000101 80 98 2.6 7.0 0.00 0.00 0.00 84 1009.0
20260507000005 81 99 3.5 8.7 0.00 0.00 0.00 85 1008.9
20260506234504 80 105 5.2 9.6 0.00 0.00 0.00 84 1008.7
20260506233008 81 92 6.1 9.6 0.00 0.00 0.00 84 1008.7
20260506231514 81 102 3.5 7.8 0.00 0.00 0.00 84 1008.6
20260506230017 81 96 3.5 7.8 0.00 0.00 0.00 84 1008.5
20260506224510 81 102 5.2 7.8 0.00 0.00 0.00 84 1008.6
20260506223105 81 98 5.2 9.6 0.00 0.00 0.00 84 1008.5
20260506221507 81 101 4.3 7.8 0.00 0.00 0.00 83 1008.5
20260506220008 81 102 3.5 8.7 0.00 0.00 0.00 83 1008.5
20260506214509 82 104 5.2 8.7 0.00 0.00 0.00 82 1008.5
20260506213014 82 101 4.3 8.7 0.00 0.00 0.00 83 1008.5
20260506211517 81 96 6.1 10.4 0.00 0.00 0.00 84 1008.5
20260506210021 81 109 4.3 8.7 0.00 0.00 0.00 84 1008.7
20260506204527 82 101 3.5 7.8 0.00 0.00 0.00 83 1008.9
20260506203042 82 98 2.6 6.1 0.00 0.00 0.00 83 1009.0
20260506201539 82 96 3.5 7.8 0.00 0.00 0.00 82 1009.2
20260506200120 82 101 3.5 7.0 0.00 0.00 0.00 83 1009.2
20260506194543 81 111 2.6 7.8 0.00 0.00 0.00 84 1009.5
20260506193055 81 97 4.3 7.8 0.00 0.00 0.00 84 1009.8
20260506191505 81 105 2.6 7.0 0.00 0.00 0.00 84 1010.0
20260506190007 81 105 5.2 8.7 0.00 0.00 0.00 83 1010.1
20260506184518 81 115 5.2 9.6 0.00 0.00 0.00 83 1010.1
20260506183023 81 119 4.3 8.7 0.00 0.00 0.00 83 1010.3
20260506181531 81 116 6.1 9.6 0.00 0.00 0.00 83 1010.3
20260506180034 81 130 5.2 8.7 0.00 0.00 0.00 82 1010.4
20260506174531 82 114 4.3 8.7 0.00 0.00 0.00 81 1010.4
20260506173032 82 126 4.3 9.6 0.00 0.00 0.00 81 1010.3
20260506171548 83 138 3.5 11.3 0.00 0.00 0.00 81 1010.1
20260506170037 82 144 3.5 8.7 0.00 0.00 0.00 82 1010.2
20260506164539 81 146 3.5 10.4 0.00 0.00 0.00 84 1010.1
20260506163048 80 140 5.2 12.2 0.00 0.00 0.00 84 1010.2
20260506161556 80 140 4.3 10.4 0.00 0.00 0.00 84 1010.1
20260506160104 80 147 6.1 11.3 0.00 0.00 0.00 85 1010.0
20260506154557 80 142 5.2 11.3 0.00 0.00 0.00 85 1009.7
20260506153058 79 161 6.1 11.3 0.00 0.00 0.00 87 1009.6
20260506151508 79 146 7.8 13.0 0.00 0.00 0.00 88 1009.6
20260506150008 78 153 5.2 10.4 0.00 0.00 0.00 88 1009.5
20260506144512 78 145 6.1 10.4 0.00 0.00 0.00 87 1009.5
20260506143020 79 146 6.1 11.3 0.00 0.00 0.00 87 1009.5
20260506141522 79 140 7.8 10.4 0.00 0.00 0.00 86 1009.6
20260506140011 79 146 6.1 13.9 0.00 0.00 0.00 86 1009.6
20260506134526 79 144 7.0 12.2 0.00 0.00 0.00 86 1009.4
20260506133018 79 144 6.1 9.6 0.00 0.00 0.00 87 1009.6
20260506131526 79 148 5.2 9.6 0.00 0.00 0.00 87 1009.6
20260506130024 79 144 5.2 10.4 0.00 0.00 0.00 87 1009.4
20260506124528 78 146 4.3 10.4 0.00 0.00 0.00 87 1009.1
20260506123028 78 143 3.5 7.8 0.00 0.00 0.00 87 1009.0
20260506121530 78 140 2.6 6.1 0.00 0.00 0.00 87 1008.9
20260506120032 78 142 3.5 7.8 0.00 0.00 0.00 87 1008.8
20260506114543 78 143 3.5 7.8 0.00 0.00 0.00 87 1008.6
20260506113039 78 142 2.6 8.7 0.00 0.00 0.00 87 1008.6
20260506111547 78 146 3.5 7.0 0.00 0.00 0.00 87 1008.6